This is the latest recevied weather packets stored in our database for station/object KY4GW. If no packets are shown the sender has not sent any weather packets the latest 10 day(s).
| Time | Temp. | Humidity | Pressure | Rain* | Wind** | Luminosity | Snow |
|---|---|---|---|---|---|---|---|
| 1778166610 | 13.33° C | 46% | 1018.6 hPa | 0 mm | - | 726 W/m² | - |
| 1778166307 | 13.33° C | 47% | 1018.6 hPa | 0 mm | - | 713 W/m² | - |
| 1778166004 | 13.33° C | 47% | 1018.3 hPa | 0 mm | - | 698 W/m² | - |
| 1778165699 | 12.78° C | 45% | 1018.3 hPa | 0 mm | - | 682 W/m² | - |
| 1778165396 | 12.78° C | 46% | 1018.3 hPa | 0 mm | - | 665 W/m² | - |
| 1778165093 | 12.78° C | 50% | 1017.9 hPa | 0 mm | - | 652 W/m² | - |
| 1778164790 | 12.78° C | 48% | 1017.9 hPa | 0 mm | - | 637 W/m² | - |
| 1778164488 | 12.78° C | 48% | 1017.9 hPa | 0 mm | - | 622 W/m² | - |
| 1778164184 | 12.22° C | 47% | 1018.3 hPa | 0 mm | - | 610 W/m² | - |
| 1778163880 | 12.22° C | 48% | 1018.3 hPa | 0 mm | - | 594 W/m² | - |
| 1778163577 | 12.22° C | 49% | 1018.3 hPa | 0 mm | - | 566 W/m² | - |
| 1778163273 | 12.22° C | 51% | 1018.6 hPa | 0 mm | - | 554 W/m² | - |
| 1778162970 | 12.22° C | 48% | 1018.6 hPa | 0 mm | - | 544 W/m² | - |
| 1778162667 | 12.22° C | 48% | 1018.6 hPa | 0 mm | - | 529 W/m² | - |
| 1778162365 | 12.22° C | 52% | 1018.3 hPa | 0 mm | - | 514 W/m² | - |
| 1778162061 | 12.22° C | 53% | 1018.3 hPa | 0 mm | - | 498 W/m² | - |
| 1778161758 | 11.67° C | 52% | 1018.3 hPa | 0 mm | - | 482 W/m² | - |
| 1778161455 | 11.67° C | 50% | 1018.3 hPa | 0 mm | - | 462 W/m² | - |
| 1778161151 | 11.67° C | 51% | 1018.3 hPa | 0 mm | - | 444 W/m² | - |
| 1778160847 | 11.11° C | 54% | 1018.3 hPa | 0 mm | - | 424 W/m² | - |
| 1778160546 | 11.11° C | 55% | 1018.3 hPa | 0 mm | - | 406 W/m² | - |
| 1778160241 | 11.11° C | 57% | 1018.3 hPa | 0 mm | - | 390 W/m² | - |
| 1778159938 | 10.56° C | 57% | 1018.3 hPa | 0 mm | - | 369 W/m² | - |
| 1778159635 | 10.56° C | 58% | 1018.3 hPa | 0 mm | - | 350 W/m² | - |
| 1778159332 | 10.56° C | 58% | 1018.3 hPa | 0 mm | - | 331 W/m² | - |
* Rain latest hour (hover to see other rain measurements)
** Current wind speed in m/s (hover to see current wind gust speed)